TimeCDT,TemperatureF,Dew PointF,Humidity,Sea Level PressureIn,VisibilityMPH,Wind Direction,Wind SpeedMPH,Gust SpeedMPH,PrecipitationIn,Events,Conditions,WindDirDegrees,DateUTC
12:52 AM,57.0,53.1,87,29.92,10.0,South,3.5,-,N/A,,Overcast,180,2012-10-03 05:52:00
1:52 AM,57.0,53.1,87,29.94,10.0,WSW,4.6,-,N/A,,Overcast,240,2012-10-03 06:52:00
2:52 AM,57.0,53.1,87,29.95,10.0,South,5.8,-,N/A,,Overcast,180,2012-10-03 07:52:00
3:52 AM,57.9,53.1,84,29.96,10.0,SSW,5.8,-,N/A,,Overcast,200,2012-10-03 08:52:00
4:52 AM,55.9,52.0,87,29.97,10.0,South,5.8,-,N/A,,Overcast,190,2012-10-03 09:52:00
5:52 AM,55.0,52.0,89,29.99,10.0,South,3.5,-,N/A,,Mostly Cloudy,170,2012-10-03 10:52:00
6:52 AM,55.0,51.1,86,30.00,10.0,Calm,Calm,-,N/A,,Partly Cloudy,0,2012-10-03 11:52:00
7:52 AM,57.0,52.0,83,30.02,10.0,South,4.6,-,N/A,,Clear,190,2012-10-03 12:52:00
8:52 AM,60.1,52.0,75,30.03,10.0,SSW,6.9,-,N/A,,Clear,200,2012-10-03 13:52:00
9:52 AM,64.9,53.1,65,30.03,10.0,SSW,8.1,-,N/A,,Clear,200,2012-10-03 14:52:00
10:52 AM,70.0,54.0,57,30.03,10.0,South,9.2,-,N/A,,Clear,190,2012-10-03 15:52:00
11:52 AM,73.9,54.0,50,30.03,10.0,SSW,10.4,-,N/A,,Clear,210,2012-10-03 16:52:00
12:52 PM,75.9,54.0,46,30.01,10.0,South,9.2,-,N/A,,Clear,190,2012-10-03 17:52:00
1:52 PM,75.9,53.1,45,30.00,10.0,SSW,15.0,18.4,N/A,,Clear,200,2012-10-03 18:52:00
2:52 PM,77.0,53.1,43,29.99,10.0,SSW,12.7,-,N/A,,Clear,200,2012-10-03 19:52:00
3:52 PM,77.0,53.1,43,29.99,10.0,SSW,16.1,-,N/A,,Scattered Clouds,200,2012-10-03 20:52:00
4:52 PM,73.9,53.1,48,29.99,10.0,SSW,12.7,-,N/A,,Clear,210,2012-10-03 21:52:00
5:43 PM,69.8,55.4,60,30.00,10.0,South,6.9,-,N/A,Thunderstorm,Clear,180,2012-10-03 22:43:00
5:52 PM,69.1,55.0,61,30.01,10.0,SSW,5.8,-,N/A,Thunderstorm,Clear,200,2012-10-03 22:52:00
6:23 PM,62.6,55.4,77,30.04,1.8,West,11.5,25.3,0.20,Rain-Thunderstorm,Heavy Thunderstorms and Rain,280,2012-10-03 23:23:00
6:32 PM,60.8,55.4,82,30.04,3.0,NW,6.9,16.1,0.24,Rain-Thunderstorm,Thunderstorms and Rain,320,2012-10-03 23:32:00
6:52 PM,60.1,57.0,90,30.03,10.0,Calm,Calm,-,0.25,Rain,Light Rain,0,2012-10-03 23:52:00
7:05 PM,60.8,57.2,88,30.04,10.0,South,4.6,-,0.00,Rain-Thunderstorm,Light Rain,170,2012-10-04 00:05:00
7:34 PM,60.8,57.2,88,30.04,10.0,Calm,Calm,-,0.00,Thunderstorm,Mostly Cloudy,0,2012-10-04 00:34:00
7:52 PM,60.1,57.9,93,30.04,10.0,SE,3.5,-,0.00,,Partly Cloudy,140,2012-10-04 00:52:00
8:52 PM,59.0,55.9,90,30.06,10.0,Calm,Calm,-,N/A,,Clear,0,2012-10-04 01:52:00
10:52 PM,57.0,55.0,93,30.10,9.0,Calm,Calm,-,N/A,,Partly Cloudy,0,2012-10-04 03:52:00
11:52 PM,57.9,55.9,93,30.10,8.0,SSE,3.5,-,N/A,,Scattered Clouds,160,2012-10-04 04:52:00